Regional Weather Roundup
Issued by NWS

Home | Current Version | Previous Version | Text Only | Print | Product List | Glossary On
Versions: 1 2 3 4 5 6 7 8 9 10 11 12 13 14 15 16 17 18 19 20 21 22 23 24 25 26 27 28 29 30 31 32 33 34 35 36 37 38 39 40 41 42 43 44 45 46 47 48 49 50
000
ASUS43 KDMX 302307
RWRIA

WEATHER ROUNDUP FOR IOWA
NATIONAL WEATHER SERVICE DES MOINES IA
600 PM CDT MON MAR 30 2015

NOTE: "FAIR" INDICATES FEW OR NO CLOUDS BELOW 12,000 FEET WITH NO
SIGNIFICANT WEATHER AND/OR OBSTRUCTIONS TO VISIBILITY.

* - THESE STATIONS ARE NOT NWS STATIONS...THUS NOT UNDER NWS
QUALITY CONTROL.  THEY ALSO DO NOT REPORT WEATHER SUCH
AS PRECIPITATION OR FOG.

IAZ001>003-012>014-020>022-031>034-043>046-310000-
   NORTHWEST IOWA

CITY           SKY/WX    TMP DP  RH WIND       PRES   REMARKS
CARROLL *      SUNNY     73  25  16 W21       29.83F
CHEROKEE *     PTSUNNY   72  28  20 NW17G25   29.82S
DENISON *      SUNNY     75  25  15 NW17G24   29.82F
LE MARS *      SUNNY     73  28  19 NW18G26   29.85R
ORANGE CITY *  SUNNY     75  21  13 NW23G31   29.83S
SHELDON *      SUNNY     72  30  21 NW28      29.81S
SIOUX CITY     MOSUNNY   77  26  15 NW22G32   29.84R
SPENCER        MOSUNNY   73  28  18 NW26G37   29.81S
STORM LAKE *   SUNNY     72  27  18 W17G23    29.83F
$$

IAZ055>058-069>071-079>083-090>094-310000-
   SOUTHWEST IOWA

CITY           SKY/WX    TMP DP  RH WIND       PRES   REMARKS
ATLANTIC *     SUNNY     75  32  20 W20G26    29.86F
AUDUBON *      SUNNY     75   9   7 W9G22     29.85F
CLARINDA *     SUNNY     72  30  21 SW16G23   29.92F
COUNCIL BLFS * SUNNY     75  34  22 W15G23    29.88S
CRESTON *      SUNNY     72  27  18 SW23G32   29.89F
HARLAN  *      SUNNY     73  28  19 W14G25    29.88F
LAMONI         SUNNY     71  30  21 SW18G29   29.91F
RED OAK *      SUNNY     75  32  20 W18G28    29.88F
SHENANDOAH *   SUNNY     75  32  20 SW12G21   29.90F
$$

IAZ047>049-059>061-072>074-084-310000-
   CENTRAL IOWA

CITY           SKY/WX    TMP DP  RH WIND       PRES   REMARKS
AMES           MOSUNNY   74  26  16 W25G32    29.81F
ANKENY *       SUNNY     73  28  19 W16G25    29.83F
CHARITON *     SUNNY     72  27  18 SW16G28   29.88F
DES MOINES     PTSUNNY   75  26  16 W21G33    29.84F
GRINNELL*      SUNNY     72  27  18 SW22      29.84F
KNOXVILLE *    SUNNY     72  25  17 SW21G30   29.85F
MARSHALLTOWN   MOSUNNY   72  30  21 W20G33    29.80F
PELLA *        MOSUNNY   72  36  26 SW17G24   29.86F
PERRY *          N/A     75  28  17 W23G35    29.83F
$$

IAZ004>006-015-016-023>025-035-036-310000-
   NORTH CENTRAL IOWA

CITY           SKY/WX    TMP DP  RH WIND       PRES   REMARKS
ALGONA *       SUNNY     73  28  19 NW21G30   29.79F
CLARION *      SUNNY     72  32  23 NW23G30   29.80F
ESTHERVILLE    SUNNY     72  29  20 W23       29.78F
FORT DODGE *   MOSUNNY   72  30  21 W10G16    29.82F
MASON CITY     SUNNY     70  30  22 W21G29    29.79F
FOREST CITY *  SUNNY     70  30  23 W21G28    29.78S
IOWA FALLS *     N/A     72  30  21 W24G31    29.81F
$$

IAZ007>011-017>019-026>030-037>042-050>054-066-310000-
   NORTHEAST IOWA

CITY           SKY/WX    TMP DP  RH WIND       PRES   REMARKS
CEDAR RAPIDS   SUNNY     70  29  21 SW24G31   29.82F
CHARLES CITY * SUNNY     70  32  24 W18G32    29.78S
CLINTON *      CLOUDY    66  32  28 W13       29.88F
DECORAH *      SUNNY     61  37  41 E8        29.78F
DUBUQUE        CLOUDY    62  33  33 SW9       29.83F
MONTICELLO *   MOSUNNY   68  30  24 SW14G21   29.82F
OELWEIN *      PTSUNNY   70  32  24 W30       29.77F
WATERLOO       SUNNY     72  27  18 W20G28    29.78F
$$

IAZ064-065-067-068-078-310000-
   EAST CENTRAL IOWA

CITY           SKY/WX    TMP DP  RH WIND       PRES   REMARKS
DAVENPORT      CLOUDY    69  27  20 SW21      29.87F
IOWA CITY      SUNNY     70  30  22 SW17G28   29.86F
MT. PLEASANT * SUNNY     66  30  26 SW21G26   29.89F
MUSCATINE *    SUNNY     70  28  21 SW22G30   29.87S
QUAD CITIES    PTSUNNY   70  28  21 SW16G25   29.86F
$$

IAZ062-063-075>077-085>089-095>099-310000-
   SOUTHEAST IOWA

CITY           SKY/WX    TMP DP  RH WIND       PRES   REMARKS
BURLINGTON     SUNNY     68  33  27 SW17G30   29.89F
FAIRFIELD *    SUNNY     70  28  21 SW24G33   29.88F
FORT MADISON * SUNNY     68  32  26 SW14G25   29.91F
KEOKUK *       SUNNY     68  32  26 SW18      29.91F
OSKALOOSA *      N/A     72  28  20 SW23G29   29.87F
CENTERVILLE *  SUNNY     68  32  26 SW16      29.92S
OTTUMWA        MOSUNNY   70  28  21 SW20G30   29.87F
WASHINGTON *   SUNNY     70  30  23 SW22G30   29.87F
$$

ABBREVIATIONS USED IN REMARKS
   TC - TEMPERATURES IN CELSIUS
  WCI - WIND CHILL INDEX
   HX - HEAT INDEX
  VSB - VISIBILITY
$$



USA.gov is the U.S. government's official web portal to all federal, state and local government web resources and services.